Regional Weather Roundup
Issued by NWS Green Bay, WI

Home | Current Version | Previous Version | Text Only | Print | Product List | Glossary On
Versions: 1 2 3 4 5 6 7 8 9 10 11 12 13 14 15 16 17 18 19 20 21 22 23 24 25 26 27 28 29 30 31 32 33 34 35 36 37 38 39 40 41 42 43 44 45 46 47 48 49 50
000
ASUS43 KGRB 040510
RWRGRB

NORTH-CENTRAL AND NORTHEAST WISCONSIN REGIONAL WEATHER ROUNDUP
NATIONAL WEATHER SERVICE GREEN BAY WI
1200 AM CDT MON MAY 04 2015

WIZ005-009-010>012-018-019-040600-
NORTH CENTRAL WISCONSIN

CITY           SKY/WX    TMP DP  RH WIND       PRES   REMARKS
IRONWOOD       CLOUDY    52  46  82 W3        29.89R
MANITOWISH WTR CLOUDY    55  47  74 CALM      29.92R
ARBOR VITAE    CLOUDY    52  50  93 CALM      29.91R
EAGLE RIVER    CLOUDY    54  51  91 CALM      29.89S
LAND O LAKES   CLOUDY    54  50  86 CALM      29.92R
RHINELANDER    CLOUDY    55  49  80 S3        29.92R
PHILLIPS       CLOUDY    51  51 100 CALM      29.91R
ANTIGO         HVY RAIN  56  55  96 S8        29.94R
TOMAHAWK       CLOUDY    52  51  95 CALM      29.92R FOG
MERRILL        CLOUDY    55  54  99 NE3       29.91R
$$

WIZ013-073-040600-
NORTHEAST WISCONSIN

CITY           SKY/WX    TMP DP  RH WIND       PRES   REMARKS
IRON MOUNTAIN  LGT RAIN  58  52  80 N7        29.88S
MARINETTE      CLOUDY    59  55  88 CALM      29.86F
OCONTO         CLOUDY    61  57  87 CALM      29.89R
$$

WIZ017-030-035>037-045-040600-
CENTRAL WISCONSIN

CITY           SKY/WX    TMP DP  RH WIND       PRES   REMARKS
MEDFORD        CLOUDY    55  54  97 N5        29.90S
WAUSAU         CLOUDY    58  56  93 E6        29.87F
MOSINEE        CLOUDY    55  55 100 E5        29.88F
MARSHFIELD     LGT RAIN  59  32  36 SE7       29.89R
WISC RAPIDS    LGT RAIN  58  55  90 SE6       29.90F
STEVENS POINT  LGT RAIN  56  55  95 N3        29.89F
WAUPACA        LGT RAIN  62  57  82 NW7       29.91R
SHAWANO        RAIN      62  57  85 NW5       29.92R
CLINTONVILLE   RAIN      59  55  88 CALM      29.93R
$$

WIZ038-039-048-051-040600-
FOX VALLEY

CITY           SKY/WX    TMP DP  RH WIND       PRES   REMARKS
NWS GREEN BAY  CLOUDY    65  56  72 W5        29.90S THUNDER
APPLETON       CLOUDY    61  54  77 CALM      29.89F
OSHKOSH        CLOUDY    64  55  72 W5        29.87R THUNDER
FOND DU LAC    CLOUDY    64  54  69 W9        29.89R THUNDER
$$

WIZ022-050-052-040600-
EAST CENTRAL WISCONSIN

CITY           SKY/WX    TMP DP  RH WIND       PRES   REMARKS
STURGEON BAY   CLOUDY    57  52  82 NE5       29.92F
MANITOWOC      CLOUDY    54  50  86 CALM      29.87F
SHEBOYGAN      CLOUDY    63  54  72 SW8       29.85F
$$

LMZ563-521-522-541>543-040600-
LAKESHORE

STATION/POSITION TIME  TEMP    WIND        PRES    VSBY  WAVE
                       AIR SEA DIR/SP/G                  HT/PER
                 (UTC) (F)     (DEG/KT/KT) (MB)    (MI)  (FT/S)
SHEBOYGAN LKSHOR 0500   49     180/ 11/ 11 1011.5F
KEWAUNEE LKSHORE 0500   50      60/  5/  8 1011.3F
NORTHPORT PIER   0500   51     180/  3/  5 1012.5R
CHAMBERS ISLAND  0500   56      CALM  /  3 1011.9F
MENOMINEE LKSHOR 0500   56      CALM  /  1 1012.1F
$$



USA.gov is the U.S. government's official web portal to all federal, state and local government web resources and services.